sat.trackr.live / text

‹ back to catalog

IRIDE-MS2-HEO-6

NORAD 64576 · 2025-135BA

PAYLOAD ACTIVE UNKNOWN

§ Identity

Operator
Country
IT
Launch date
2025-06-23
Launch site
AFWTR
Launch vehicle
Mass (kg)
RCS (m²)

External: N2YO · Heavens-Above · Gunter

§ Orbital elements

Epoch: 2026-09-21T22:47:23.343936Z

Period
96.52 min
Inclination
97.7805°
Eccentricity
0.0001964
Mean motion
14.91954694 rev/d
Perigee alt
590.5 km
Apogee alt
593.2 km
Semi-major
6,970.0 km
B*
1.0531e-4
RAAN
17.8638°
Arg perigee
68.5120°
Mean anomaly
291.6308°
Rev number
6,831

§ Raw data

IRIDE-MS2-HEO-61 64576U 25135BA  26264.94957574  .00001010  00000+0  10531-3 0  99982 64576  97.7805  17.8638 0001964  68.5120 291.6308 14.91954694 68310

JSON: /api/v1/satellites/64576 · /tle

For live sub-satellite position, see the globe view (requires WebGL).

§ Visibility from observer

Set your observer location to see the next 7 days of passes ≥ 10°. The values pass through the URL so the page stays shareable.

No JS? Fill the form by hand. The geolocation button needs JavaScript.

§ Radio — SatNOGS DB

ModeDescriptionDownlinkUplink
FM Mode S - Transmitter 2.264 GHz
FM S-band telemetry 2.264 GHz

2 transmitters · refreshed weekly from db.satnogs.org